sat.trackr.live / text

‹ back to catalog

BEIDOU-2 G6 (C02)

NORAD 38953 · 2012-059A

PAYLOAD ACTIVE UNKNOWN

§ Identity

Operator
Country
PRC
Launch date
2012-10-25
Launch site
XICLF
Launch vehicle
Mass (kg)
RCS (m²)
2.51

Purposes: comms, nav

External: N2YO · Heavens-Above · Gunter

§ Orbital elements

Epoch: 2026-09-20T01:55:29.805312Z

Period
1,436.13 min
Inclination
4.6558°
Eccentricity
0.0006831
Mean motion
1.00269760 rev/d
Perigee alt
35,758.4 km
Apogee alt
35,816.0 km
Semi-major
42,165.3 km
B*
0.0000e+0
RAAN
72.4378°
Arg perigee
324.4089°
Mean anomaly
74.9906°
Rev number
5,086

§ Raw data

BEIDOU-2 G6 (C02)1 38953U 12059A   26263.08020608 -.00000177  00000+0  00000+0 0  99922 38953   4.6558  72.4378 0006831 324.4089  74.9906  1.00269760 50862

JSON: /api/v1/satellites/38953 · /tle

For live sub-satellite position, see the globe view (requires WebGL).

§ Visibility from observer

Set your observer location to see the next 7 days of passes ≥ 10°. The values pass through the URL so the page stays shareable.

No JS? Fill the form by hand. The geolocation button needs JavaScript.